GW1230 Weather Reports


time (UTC)temp
C
wind
direction
speed
KPH
gust
KPH
rain 1hr
cm
rain 24hr
cm
rain mn
cm
humidity
%
barometer
mb
20260904225732 22 288 0.0 0.0 0.00 0.00 0.00 53 1013.5
20260904225226 21 278 0.0 0.0 0.00 0.00 0.00 54 1013.4
20260904224725 20 342 8.0 9.7 0.00 0.00 0.00 55 1013.7
20260904224221 21 279 1.6 1.6 0.00 0.00 0.00 55 1013.3
20260904223720 21 298 1.6 3.2 0.00 0.00 0.00 56 1013.5
20260904223215 21 304 3.2 4.8 0.00 0.00 0.00 54 1013.3
20260904222711 21 307 1.6 4.8 0.00 0.00 0.00 55 1013.4
20260904222207 21 342 8.0 9.7 0.00 0.00 0.00 56 1013.2
20260904221706 21 316 6.4 9.7 0.00 0.00 0.00 55 1013.5
20260904221201 20 327 6.4 8.0 0.00 0.00 0.00 58 1013.5
20260904220656 20 251 1.6 4.8 0.00 0.00 0.00 60 1013.2
20260904220151 20 1 3.2 4.8 0.00 0.00 0.00 59 1013.4
20260904215650 20 238 8.0 11.3 0.00 0.00 0.00 59 1013.4
20260904215147 20 316 9.7 12.9 0.00 0.00 0.00 60 1013.5
20260904214641 20 274 1.6 1.6 0.00 0.00 0.00 61 1013.4
20260904214137 21 326 6.4 9.7 0.00 0.00 0.00 57 1013.2
20260904213635 20 317 9.7 11.3 0.00 0.00 0.00 60 1013.4
20260904213131 20 318 8.0 11.3 0.00 0.00 0.00 59 1013.3
20260904212626 21 329 11.3 12.9 0.00 0.00 0.00 59 1013.5
20260904212121 21 317 1.6 1.6 0.00 0.00 0.00 57 1013.4
20260904211620 20 338 0.0 3.2 0.00 0.00 0.00 57 1013.3
20260904211116 21 267 0.0 0.0 0.00 0.00 0.00 59 1013.3
20260904210616 20 317 8.0 11.3 0.00 0.00 0.00 57 1013.4
20260904210111 20 304 1.6 1.6 0.00 0.00 0.00 57 1013.3
20260904205607 20 2 3.2 4.8 0.00 0.00 0.00 59 1013.3
20260904205103 20 333 14.5 17.7 0.00 0.00 0.00 57 1013.2
20260904204559 20 192 0.0 0.0 0.00 0.00 0.00 61 1013.4
20260904204055 20 348 4.8 9.7 0.00 0.00 0.00 62 1013.2
20260904203550 20 13 8.0 9.7 0.00 0.00 0.00 60 1013.5
20260904203047 19 283 1.6 3.2 0.00 0.00 0.00 62 1013.2
20260904202542 19 336 4.8 8.0 0.00 0.00 0.00 63 1013.3
20260904202039 20 250 6.4 9.7 0.00 0.00 0.00 61 1013.2
20260904201533 20 234 0.0 0.0 0.00 0.00 0.00 63 1013.2
20260904201029 20 306 1.6 3.2 0.00 0.00 0.00 63 1013.4
20260904200527 18 248 11.3 12.9 0.00 0.00 0.00 67 1013.2
20260904200023 19 249 3.2 4.8 0.00 0.00 0.00 67 1013.2
20260904195521 18 252 3.2 8.0 0.00 0.00 0.00 67 1013.1
20260904195020 18 300 9.7 14.5 0.00 0.00 0.00 68 1013.4
20260904194515 18 309 0.0 0.0 0.00 0.00 0.00 68 1013.2
20260904194010 18 238 11.3 12.9 0.00 0.00 0.00 68 1013.3
20260904193505 19 255 0.0 1.6 0.00 0.00 0.00 68 1013.5
20260904193001 19 1 3.2 3.2 0.00 0.00 0.00 68 1013.6
20260904192500 18 353 3.2 4.8 0.00 0.00 0.00 68 1013.5
20260904191957 18 313 0.0 1.6 0.00 0.00 0.00 69 1013.5
20260904191453 18 207 3.2 3.2 0.00 0.00 0.00 70 1013.4
20260904190949 18 320 0.0 1.6 0.00 0.00 0.00 72 1013.5
20260904190444 18 268 0.0 0.0 0.00 0.00 0.00 72 1013.5
20260904185940 18 262 0.0 1.6 0.00 0.00 0.00 71 1013.6
20260904185436 18 293 3.2 3.2 0.00 0.00 0.00 73 1013.7
20260904184937 17 290 3.2 3.2 0.00 0.00 0.00 74 1013.7
20260904184431 17 219 1.6 3.2 0.00 0.00 0.00 73 1013.7
20260904183926 17 245 1.6 1.6 0.00 0.00 0.00 75 1013.6
20260904183421 17 264 3.2 3.2 0.00 0.00 0.00 74 1013.6
20260904182917 17 285 4.8 4.8 0.00 0.00 0.00 75 1013.3
20260904182412 16 261 3.2 4.8 0.00 0.00 0.00 77 1013.5
20260904181906 17 279 1.6 4.8 0.00 0.00 0.00 77 1013.5
20260904181402 17 243 3.2 3.2 0.00 0.00 0.00 77 1013.4
20260904180857 16 320 0.0 0.0 0.00 0.00 0.00 79 1013.5
20260904180352 16 313 0.0 0.0 0.00 0.00 0.00 78 1013.5
20260904175852 17 256 1.6 3.2 0.00 0.00 0.00 78 1013.4
20260904175350 17 260 0.0 1.6 0.00 0.00 0.00 77 1013.4
20260904174844 17 326 4.8 4.8 0.00 0.00 0.00 75 1013.6
20260904174340 18 271 0.0 0.0 0.00 0.00 0.00 73 1013.4
20260904173836 18 270 0.0 0.0 0.00 0.00 0.00 71 1013.4
20260904173331 17 171 3.2 4.8 0.00 0.00 0.00 74 1013.4
20260904172828 16 230 0.0 0.0 0.00 0.00 0.00 78 1013.3
20260904172327 16 196 3.2 3.2 0.00 0.00 0.00 79 1013.4
20260904171822 16 186 8.0 9.7 0.00 0.00 0.00 80 1013.3
20260904171317 17 180 4.8 4.8 0.00 0.00 0.00 77 1013.4
20260904170813 17 163 1.6 1.6 0.00 0.00 0.00 79 1013.2
20260904170309 16 204 4.8 8.0 0.00 0.00 0.00 81 1013.3
20260904165809 16 208 1.6 3.2 0.00 0.00 0.00 82 1013.3
20260904165308 16 74 0.0 0.0 0.00 0.00 0.00 83 1013.4
20260904164803 15 204 0.0 0.0 0.00 0.00 0.00 85 1013.6
20260904164257 15 267 0.0 0.0 0.00 0.00 0.00 88 1013.5
20260904163754 14 258 0.0 0.0 0.00 0.00 0.00 89 1013.4
20260904163248 14 299 0.0 0.0 0.00 0.00 0.00 90 1013.3
20260904162748 14 324 0.0 0.0 0.00 0.00 0.00 91 1013.6
20260904162243 13 329 0.0 0.0 0.00 0.00 0.00 92 1013.4
20260904161739 13 314 0.0 0.0 0.00 0.00 0.00 92 1013.7
20260904161238 13 288 0.0 0.0 0.00 0.00 0.00 92 1013.2
20260904160734 13 322 3.2 3.2 0.00 0.00 0.00 92 1013.4
20260904160230 13 302 0.0 0.0 0.00 0.00 0.00 93 1013.2
20260904155729 13 305 0.0 0.0 0.00 0.00 0.00 93 1013.2
20260904155229 13 314 3.2 3.2 0.00 0.00 0.00 94 1013.1
20260904154727 13 255 3.2 4.8 0.00 0.00 0.00 94 1013.1
20260904154222 12 265 0.0 0.0 0.00 0.00 0.00 94 1013.2
20260904153718 12 297 1.6 1.6 0.00 0.00 0.00 95 1013.2
20260904153213 12 286 0.0 0.0 0.00 0.00 0.00 95 1013.2
20260904152710 12 290 0.0 0.0 0.00 0.00 0.00 95 1013.1
20260904152204 12 275 0.0 0.0 0.00 0.00 0.00 95 1013.1
20260904151659 12 292 0.0 0.0 0.00 0.00 0.00 95 1013.0
20260904151158 12 300 0.0 0.0 0.00 0.00 0.00 95 1013.0
20260904150654 12 291 0.0 0.0 0.00 0.00 0.00 95 1013.0
20260904150149 12 301 0.0 0.0 0.00 0.00 0.00 95 1012.8
20260904145648 12 301 0.0 0.0 0.00 0.00 0.00 95 1012.5
20260904145143 12 300 0.0 0.0 0.00 0.00 0.00 95 1012.6
20260904144638 12 292 0.0 0.0 0.00 0.00 0.00 95 1012.8
20260904144134 12 296 0.0 0.0 0.00 0.00 0.00 95 1012.5
20260904143630 12 282 0.0 0.0 0.00 0.00 0.00 95 1012.6
20260904143126 12 289 0.0 0.0 0.00 0.00 0.00 95 1012.7
20260904142623 12 294 0.0 0.0 0.00 0.00 0.00 95 1012.6
20260904142118 12 294 0.0 0.0 0.00 0.00 0.00 95 1012.5
20260904141613 12 301 0.0 0.0 0.00 0.00 0.00 95 1012.5
20260904141108 12 275 0.0 0.0 0.00 0.00 0.00 95 1012.4
20260904140604 12 272 0.0 0.0 0.00 0.00 0.00 95 1012.4
20260904140058 12 279 0.0 0.0 0.00 0.00 0.00 95 1012.4
20260904135557 12 281 0.0 0.0 0.00 0.00 0.00 95 1012.2
20260904135053 12 294 0.0 0.0 0.00 0.00 0.00 95 1012.2
20260904134548 12 298 0.0 0.0 0.00 0.00 0.00 95 1012.1
20260904134043 12 296 0.0 0.0 0.00 0.00 0.00 95 1012.4
20260904133537 12 290 0.0 0.0 0.00 0.00 0.00 95 1011.9
20260904133033 12 285 0.0 0.0 0.00 0.00 0.00 95 1011.8
20260904132528 11 290 0.0 0.0 0.00 0.00 0.00 95 1011.9
20260904132028 12 291 0.0 0.0 0.00 0.00 0.00 95 1011.8
20260904131527 12 291 0.0 0.0 0.00 0.00 0.00 95 1012.0
20260904131023 12 289 0.0 0.0 0.00 0.00 0.00 95 1011.7
20260904130522 12 287 0.0 0.0 0.00 0.00 0.00 95 1011.6
20260904130017 12 277 0.0 0.0 0.00 0.00 0.00 95 1011.6
20260904125514 12 274 0.0 0.0 0.00 0.00 0.00 95 1011.6
20260904125008 12 276 0.0 0.0 0.00 0.00 0.00 94 1011.6
20260904124504 12 277 0.0 0.0 0.00 0.00 0.00 94 1011.7
20260904123954 12 271 0.0 0.0 0.00 0.00 0.00 94 1011.5
20260904123448 11 282 0.0 0.0 0.00 0.00 0.00 94 1011.5
20260904122944 11 277 0.0 0.0 0.00 0.00 0.00 94 1011.7
20260904122443 11 282 0.0 0.0 0.00 0.00 0.00 94 1011.7
20260904121938 12 276 0.0 0.0 0.00 0.00 0.00 94 1011.6
20260904121434 11 284 0.0 0.0 0.00 0.00 0.00 94 1011.7
20260904120931 11 290 0.0 0.0 0.00 0.00 0.00 93 1011.5
20260904120426 12 301 0.0 0.0 0.00 0.00 0.00 93 1011.4
20260904115921 12 284 0.0 0.0 0.00 0.00 0.00 93 1011.4
20260904115416 12 283 0.0 0.0 0.00 0.00 0.00 93 1011.3
20260904114910 12 301 0.0 0.0 0.00 0.00 0.00 93 1011.1
20260904114405 12 306 0.0 0.0 0.00 0.00 0.00 93 1011.1
20260904113901 12 298 0.0 0.0 0.00 0.00 0.00 93 1011.1
20260904113401 12 305 0.0 0.0 0.00 0.00 0.00 92 1011.2
20260904112900 12 269 0.0 0.0 0.00 0.00 0.00 92 1011.0
20260904112356 12 292 0.0 0.0 0.00 0.00 0.00 92 1011.1
20260904111851 12 274 0.0 0.0 0.00 0.00 0.00 92 1011.2
20260904111347 12 262 0.0 0.0 0.00 0.00 0.00 92 1010.9
20260904110842 12 279 0.0 0.0 0.00 0.00 0.00 92 1011.0
20260904110341 12 267 0.0 0.0 0.00 0.00 0.00 92 1011.0
20260904105836 12 266 0.0 0.0 0.00 0.00 0.00 92 1010.9
20260904105331 12 271 0.0 0.0 0.00 0.00 0.00 92 1011.0
20260904104826 12 273 0.0 0.0 0.00 0.00 0.00 92 1011.1
20260904104321 12 295 0.0 0.0 0.00 0.00 0.00 91 1010.9
20260904103818 12 281 0.0 0.0 0.00 0.00 0.00 91 1010.7
20260904103318 12 289 0.0 0.0 0.00 0.00 0.00 91 1011.1
20260904102814 12 296 0.0 0.0 0.00 0.00 0.00 91 1010.8
20260904102309 12 291 0.0 0.0 0.00 0.00 0.00 92 1010.8
20260904101805 12 300 0.0 0.0 0.00 0.00 0.00 91 1010.7
20260904101301 12 304 0.0 0.0 0.00 0.00 0.00 91 1010.6
20260904100756 12 309 0.0 0.0 0.00 0.00 0.00 91 1010.8
20260904100252 12 295 0.0 0.0 0.00 0.00 0.00 91 1010.7
20260904095752 12 289 0.0 0.0 0.00 0.00 0.00 91 1010.8
20260904095247 13 294 0.0 0.0 0.00 0.00 0.00 91 1010.8
20260904094742 13 275 0.0 0.0 0.00 0.00 0.00 91 1010.7
20260904094237 13 274 0.0 0.0 0.00 0.00 0.00 91 1010.6
20260904093734 13 260 0.0 0.0 0.00 0.00 0.00 91 1010.8
20260904093233 13 284 0.0 0.0 0.00 0.00 0.00 91 1010.8
20260904092729 13 261 0.0 0.0 0.00 0.00 0.00 91 1010.7
20260904092225 13 260 0.0 0.0 0.00 0.00 0.00 92 1010.8
20260904091720 13 311 0.0 0.0 0.00 0.00 0.00 92 1010.9
20260904091215 13 305 0.0 0.0 0.00 0.00 0.00 92 1010.8
20260904090711 13 326 0.0 0.0 0.00 0.00 0.00 92 1010.8
20260904090207 13 284 0.0 0.0 0.00 0.00 0.00 91 1010.5
20260904085701 13 280 0.0 0.0 0.00 0.00 0.00 91 1010.5
20260904085156 13 304 0.0 3.2 0.00 0.00 0.00 91 1010.6
20260904084651 13 313 0.0 0.0 0.00 0.00 0.00 91 1010.4
20260904084147 13 282 4.8 8.0 0.00 0.00 0.00 91 1010.2
20260904083643 13 300 3.2 4.8 0.00 0.00 0.00 91 1010.3
20260904083140 13 300 0.0 1.6 0.00 0.00 0.00 91 1010.4
20260904082634 13 291 0.0 0.0 0.00 0.00 0.00 91 1010.6
20260904082130 14 286 0.0 0.0 0.00 0.00 0.00 90 1010.7
20260904081625 14 293 3.2 3.2 0.00 0.00 0.00 90 1010.7
20260904081120 14 295 3.2 4.8 0.00 0.00 0.00 89 1010.8
20260904080615 14 296 1.6 3.2 0.00 0.00 0.00 88 1011.0
20260904080112 14 280 0.0 0.0 0.00 0.00 0.00 87 1010.7
20260904075607 14 275 0.0 0.0 0.00 0.00 0.00 87 1010.8
20260904075107 14 287 0.0 0.0 0.00 0.00 0.00 87 1010.7
20260904074601 14 289 0.0 0.0 0.00 0.00 0.00 87 1011.0
20260904074056 14 287 0.0 0.0 0.00 0.00 0.00 86 1010.9
20260904073550 15 283 0.0 0.0 0.00 0.00 0.00 86 1010.9
20260904073047 15 274 0.0 0.0 0.00 0.00 0.00 85 1010.9
20260904072543 15 277 0.0 0.0 0.00 0.00 0.00 84 1010.5
20260904072038 15 260 0.0 0.0 0.00 0.00 0.00 83 1010.7
20260904071533 15 265 0.0 0.0 0.00 0.00 0.00 82 1010.8
20260904071028 15 266 0.0 0.0 0.00 0.00 0.00 80 1010.9
20260904070527 15 266 0.0 0.0 0.00 0.00 0.00 80 1010.6
20260904070022 15 266 0.0 0.0 0.00 0.03 0.03 80 1010.6
20260904065517 15 262 0.0 0.0 0.00 0.03 0.03 80 1010.5
20260904065013 15 249 0.0 0.0 0.00 0.03 0.03 81 1010.7
20260904064509 15 266 0.0 0.0 0.00 0.03 0.03 80 1010.5
20260904064003 15 266 0.0 0.0 0.00 0.03 0.03 80 1010.8
20260904063500 15 266 0.0 0.0 0.00 0.03 0.03 80 1010.7
20260904062954 15 266 0.0 0.0 0.00 0.03 0.03 80 1010.8
20260904062451 15 267 0.0 0.0 0.00 0.03 0.03 79 1010.8
20260904061946 15 273 0.0 0.0 0.00 0.03 0.03 79 1010.7
20260904061442 15 274 0.0 0.0 0.00 0.03 0.03 79 1010.8
20260904060938 15 274 0.0 0.0 0.00 0.03 0.03 79 1010.5
20260904060434 15 278 0.0 0.0 0.00 0.03 0.03 79 1010.5
20260904055929 15 280 0.0 0.0 0.00 0.03 0.03 79 1010.5
20260904055425 15 280 0.0 0.0 0.00 0.03 0.03 79 1010.5
20260904054921 15 283 0.0 0.0 0.00 0.03 0.03 79 1010.4
20260904054416 15 281 0.0 0.0 0.00 0.03 0.03 79 1010.5
20260904053912 15 276 0.0 0.0 0.00 0.03 0.03 79 1010.5
20260904053411 15 279 0.0 0.0 0.00 0.03 0.03 79 1010.4
20260904052907 15 278 0.0 0.0 0.00 0.03 0.03 78 1010.6
20260904052403 15 273 0.0 0.0 0.00 0.03 0.03 78 1010.4
20260904051859 15 268 0.0 0.0 0.00 0.03 0.03 78 1010.4
20260904051354 15 268 0.0 0.0 0.00 0.03 0.03 77 1010.4
20260904050854 15 268 0.0 0.0 0.00 0.03 0.03 77 1010.3
20260904050351 15 263 0.0 0.0 0.00 0.03 0.03 76 1010.4
20260904045851 15 266 0.0 0.0 0.00 0.03 0.03 76 1010.5
20260904045346 15 257 0.0 0.0 0.00 0.03 0.03 76 1010.6
20260904044840 15 244 0.0 0.0 0.00 0.03 0.03 77 1010.6
20260904044337 15 275 0.0 0.0 0.00 0.03 0.03 79 1010.5
20260904043833 15 266 0.0 0.0 0.00 0.03 0.03 78 1010.6
20260904043330 15 266 0.0 0.0 0.00 0.03 0.03 78 1010.6
20260904042829 15 232 0.0 0.0 0.00 0.03 0.03 78 1010.6
20260904042325 15 273 0.0 0.0 0.00 0.03 0.03 78 1010.7
20260904041820 15 287 0.0 0.0 0.00 0.03 0.03 79 1010.5
20260904041316 15 252 0.0 0.0 0.00 0.03 0.03 78 1010.6
20260904040812 15 229 0.0 3.2 0.00 0.03 0.03 77 1010.6
20260904040307 15 247 0.0 0.0 0.00 0.03 0.03 77 1010.5
20260904035803 16 213 0.0 0.0 0.00 0.03 0.03 77 1010.5
20260904035259 16 264 0.0 0.0 0.00 0.03 0.03 76 1010.4
20260904034757 16 262 0.0 0.0 0.00 0.03 0.03 74 1010.3
20260904034253 16 211 4.8 8.0 0.00 0.03 0.03 73 1010.2
20260904033749 16 230 1.6 3.2 0.00 0.03 0.03 73 1010.3
20260904033246 16 241 1.6 3.2 0.00 0.03 0.03 72 1010.3
20260904032741 16 268 0.0 1.6 0.00 0.03 0.03 72 1010.2
20260904032240 16 253 0.0 0.0 0.00 0.03 0.03 72 1010.0
20260904031729 16 232 0.0 1.6 0.00 0.03 0.03 72 1010.2
20260904031225 16 219 3.2 3.2 0.00 0.03 0.03 72 1010.0
20260904030720 16 268 3.2 3.2 0.00 0.03 0.03 72 1009.9
20260904030216 16 256 3.2 4.8 0.00 0.03 0.03 72 1009.8
20260904025712 16 253 0.0 1.6 0.00 0.03 0.03 72 1010.0
20260904025207 16 229 3.2 3.2 0.00 0.03 0.03 72 1009.7
20260904024703 17 217 0.0 0.0 0.00 0.03 0.03 72 1009.8
20260904024158 17 262 0.0 0.0 0.00 0.03 0.03 71 1009.8
20260904023654 17 257 0.0 0.0 0.00 0.03 0.03 70 1009.8
20260904023150 17 255 1.6 3.2 0.00 0.03 0.03 69 1009.8
20260904022649 17 244 0.0 0.0 0.00 0.03 0.03 68 1009.6
20260904022146 17 264 0.0 0.0 0.00 0.03 0.03 67 1009.7
20260904021642 17 248 0.0 0.0 0.00 0.03 0.03 67 1009.8
20260904021136 17 220 0.0 0.0 0.00 0.03 0.03 67 1009.5
20260904020633 18 252 3.2 3.2 0.00 0.03 0.03 66 1009.5
20260904020127 18 263 0.0 0.0 0.00 0.03 0.03 65 1009.5
20260904015621 18 275 0.0 0.0 0.00 0.03 0.03 65 1009.7
20260904015120 18 256 3.2 4.8 0.00 0.03 0.03 66 1009.5
20260904014619 18 251 4.8 8.0 0.00 0.03 0.03 67 1009.3
20260904014114 18 244 0.0 1.6 0.00 0.03 0.03 66 1009.5
20260904013611 18 288 0.0 1.6 0.00 0.03 0.03 67 1009.5
20260904013107 18 239 0.0 0.0 0.00 0.03 0.03 66 1009.5
20260904012608 17 257 0.0 0.0 0.00 0.03 0.03 66 1009.5
20260904012102 17 231 4.8 4.8 0.00 0.03 0.03 65 1009.6
20260904011601 18 240 0.0 1.6 0.00 0.03 0.03 64 1009.7
20260904011057 18 241 8.0 11.3 0.00 0.03 0.03 64 1009.5
20260904010552 18 236 3.2 4.8 0.00 0.03 0.03 64 1009.6
20260904010050 18 189 0.0 0.0 0.00 0.03 0.03 65 1009.5
20260904005548 18 233 0.0 0.0 0.00 0.03 0.03 65 1009.6
20260904005044 18 197 0.0 0.0 0.00 0.03 0.03 66 1009.5
20260904004539 18 107 0.0 0.0 0.00 0.03 0.03 66 1009.4
20260904004034 18 185 4.8 4.8 0.00 0.03 0.03 66 1009.5
20260904003530 18 191 0.0 0.0 0.00 0.03 0.03 64 1009.4
20260904003026 18 199 4.8 4.8 0.00 0.03 0.03 60 1009.3
20260904002521 18 265 0.0 0.0 0.00 0.03 0.03 59 1009.3
20260904002021 18 272 0.0 0.0 0.00 0.03 0.03 60 1009.6
20260904001517 18 270 0.0 0.0 0.00 0.03 0.03 60 1009.4
20260904001016 18 262 0.0 0.0 0.00 0.03 0.03 59 1009.4
20260904000515 19 235 0.0 0.0 0.00 0.03 0.03 58 1009.6
20260904000012 18 255 0.0 0.0 0.00 0.03 0.03 60 1009.3
20260903235506 18 263 0.0 0.0 0.00 0.03 0.03 61 1009.2
20260903235001 18 207 0.0 0.0 0.00 0.03 0.03 62 1009.3
20260903234456 18 264 1.6 1.6 0.00 0.03 0.03 61 1009.3
20260903233953 19 209 4.8 4.8 0.00 0.03 0.03 60 1009.4
20260903233449 18 321 0.0 0.0 0.00 0.03 0.03 62 1009.3
20260903232943 18 190 3.2 3.2 0.00 0.03 0.03 62 1009.4
20260903232439 18 255 0.0 0.0 0.00 0.03 0.03 62 1009.3
20260903231938 18 266 0.0 0.0 0.00 0.03 0.03 62 1009.3
20260903231434 18 241 0.0 0.0 0.00 0.03 0.03 62 1009.6
20260903230928 18 225 6.4 8.0 0.00 0.03 0.03 62 1009.5
20260903230424 18 266 4.8 4.8 0.00 0.03 0.03 63 1009.6
20260903225920 18 195 8.0 9.7 0.00 0.03 0.03 63 1009.5